User: anonymous
Location: Irma
(52.9170°N, 111.2330°W)
Time: 02:14:49
(UTC-06:00)
Language:

Cosmos 1633 Rocket - Orbit

View from above orbital plane
View from above orbital plane
View from above satellite
View from above satellite

Ground track
Ground track

The orbit data is extracted from the following two-line orbital elements,

1 15593U 85020B   14242.28245936  .00000204  00000-0  21789-4 0  7399
2 15593 082.5395 138.6714 0012470 167.5270 332.0905 14.83733216592803
Epoch (UTC): 30 August 2014 06:46:44
Eccentricity: 0.0012470
inclination: 82.5395°
perigee height: 609 km
apogee height: 626 km
right ascension of ascending node: 138.6714°
argument of perigee: 167.5270°
revolutions per day: 14.83733216
mean anomaly at epoch: 332.0905°
orbit number at epoch: 59280

The dashed part of the orbit path shows where the satellite is in the earth's shadow,  

DLR